FW3296 Weather Reports


time (UTC)temp
F
wind
direction
speed
knots
gust
knots
rain 1hr
in
rain 24hr
in
rain mn
in
humidity
%
barometer
mb
20260510201515 49 49 3.5 7.0 0.00 0.00 0.00 78 1014.7
20260510200515 50 51 2.6 5.2 0.00 0.00 0.00 76 1014.7
20260510195515 50 46 3.5 7.8 0.00 0.00 0.00 75 1014.7
20260510194515 51 40 5.2 11.3 0.00 0.00 0.00 74 1014.6
20260510193515 51 44 5.2 12.2 0.00 0.00 0.00 73 1014.5
20260510192515 52 41 6.1 10.4 0.00 0.00 0.00 72 1014.5
20260510191536 52 44 5.2 13.0 0.00 0.00 0.00 72 1014.5
20260510190535 53 50 5.2 11.3 0.00 0.00 0.00 71 1014.5
20260510185515 54 45 5.2 13.0 0.00 0.00 0.00 70 1014.5
20260510184515 54 42 6.1 11.3 0.00 0.00 0.00 70 1014.5
20260510183515 55 47 5.2 11.3 0.00 0.00 0.00 69 1014.6
20260510182515 55 44 7.0 13.0 0.00 0.00 0.00 70 1014.6
20260510181515 55 48 6.1 15.6 0.00 0.00 0.00 71 1014.6
20260510180515 54 39 7.8 15.6 0.00 0.00 0.00 72 1014.6
20260510175515 54 34 10.4 18.2 0.00 0.00 0.00 71 1014.7
20260510174515 55 37 8.7 16.5 0.00 0.00 0.00 71 1014.7
20260510173515 55 35 8.7 18.2 0.00 0.00 0.00 71 1014.8
20260510172535 56 39 10.4 20.0 0.00 0.00 0.00 70 1014.8
20260510171515 56 40 8.7 14.8 0.00 0.00 0.00 71 1014.9
20260510170515 57 39 7.8 18.2 0.00 0.00 0.00 71 1014.9
20260510165515 57 37 8.7 15.6 0.00 0.02 0.00 70 1014.9
20260510164535 58 40 7.8 15.6 0.00 0.02 0.00 69 1014.8
20260510163515 58 45 7.0 14.8 0.00 0.02 0.00 69 1014.8
20260510162517 58 39 8.7 16.5 0.00 0.02 0.00 69 1014.8
20260510161517 58 35 8.7 14.8 0.00 0.02 0.00 69 1014.8
20260510160517 59 42 7.8 16.5 0.00 0.02 0.00 67 1014.8
20260510155535 60 39 7.8 13.9 0.00 0.02 0.00 67 1014.9
20260510154557 60 33 7.0 15.6 0.00 0.02 0.00 67 1015.0
20260510153517 61 41 7.0 15.6 0.00 0.02 0.00 68 1014.9
20260510152517 60 41 6.1 16.5 0.00 0.02 0.00 68 1015.0
20260510151517 60 37 7.0 17.4 0.00 0.02 0.00 67 1015.0
20260510150537 61 38 8.7 13.9 0.00 0.02 0.00 65 1015.2
20260510145516 61 40 7.0 18.2 0.00 0.02 0.00 66 1015.1
20260510144517 61 39 7.0 16.5 0.00 0.02 0.00 66 1015.2
20260510143517 61 39 6.1 13.9 0.00 0.02 0.00 66 1015.3
20260510142517 61 52 7.0 15.6 0.00 0.02 0.00 66 1015.4
20260510141557 61 66 7.0 17.4 0.00 0.02 0.00 67 1015.4
20260510140537 61 42 7.8 17.4 0.00 0.02 0.00 66 1015.4
20260510135537 62 57 7.8 16.5 0.00 0.02 0.00 66 1015.5
20260510134537 61 77 5.2 14.8 0.00 0.02 0.00 68 1015.6
20260510133517 63 42 7.8 15.6 0.00 0.02 0.00 63 1015.5
20260510132516 63 53 6.1 13.9 0.00 0.02 0.00 62 1015.5
20260510131617 64 48 7.8 15.6 0.00 0.02 0.00 61 1015.5
20260510130516 64 78 7.0 13.0 0.00 0.02 0.00 58 1015.5
20260510125516 63 70 5.2 16.5 0.00 0.02 0.00 58 1015.5
20260510124536 63 58 6.1 16.5 0.00 0.02 0.00 59 1015.6
20260510123516 64 78 5.2 13.9 0.00 0.02 0.00 59 1015.8
20260510122517 63 90 7.0 14.8 0.00 0.02 0.00 59 1015.9
20260510121517 63 87 6.1 18.2 0.00 0.02 0.00 60 1015.9
20260510120557 62 49 7.0 15.6 0.00 0.02 0.00 59 1015.8
20260510115516 63 77 5.2 12.2 0.00 0.02 0.00 61 1015.9
20260510114516 63 54 5.2 12.2 0.00 0.02 0.00 60 1015.9
20260510113516 63 90 4.3 13.0 0.00 0.02 0.00 60 1016.0
20260510112516 62 96 6.1 14.8 0.00 0.02 0.00 61 1015.9
20260510111516 62 70 6.1 15.6 0.00 0.02 0.00 61 1016.1
20260510110516 61 62 5.2 15.6 0.00 0.02 0.00 62 1016.1
20260510105516 62 61 4.3 13.0 0.00 0.02 0.00 64 1016.1
20260510104516 61 83 4.3 13.0 0.00 0.02 0.00 64 1016.3
20260510103537 60 86 5.2 12.2 0.00 0.02 0.00 67 1016.3
20260510102516 59 93 6.1 14.8 0.00 0.02 0.00 67 1016.5
20260510101516 58 61 7.8 15.6 0.00 0.02 0.00 68 1016.5
20260510100517 56 68 6.1 13.9 0.00 0.02 0.00 69 1016.5
20260510095516 55 61 5.2 14.8 0.00 0.02 0.00 71 1016.5
20260510094516 55 85 4.3 12.2 0.00 0.02 0.00 74 1016.6
20260510093536 54 61 5.2 12.2 0.00 0.02 0.00 73 1016.7
20260510092516 54 61 5.2 14.8 0.00 0.02 0.00 73 1016.6
20260510091556 54 50 4.3 12.2 0.00 0.02 0.00 76 1016.7
20260510090516 53 76 4.3 13.0 0.00 0.02 0.00 77 1016.7
20260510085536 52 65 5.2 15.6 0.00 0.02 0.00 77 1016.7
20260510084521 52 62 5.2 13.0 0.00 0.02 0.00 78 1016.8
20260510083536 52 51 6.1 13.0 0.00 0.02 0.00 78 1016.8
20260510082515 51 50 4.3 11.3 0.00 0.02 0.00 79 1016.9
20260510081516 51 46 6.1 13.0 0.00 0.02 0.00 80 1016.9
20260510080516 50 43 7.0 13.9 0.00 0.02 0.00 80 1016.8
20260510075516 50 42 7.8 13.9 0.00 0.02 0.00 80 1016.8
20260510074516 50 50 6.1 13.9 0.00 0.02 0.00 79 1016.8
20260510073516 51 62 7.0 15.6 0.00 0.02 0.00 79 1016.8
20260510072535 51 44 7.0 15.6 0.00 0.02 0.00 78 1016.6
20260510071516 51 81 4.3 13.0 0.00 0.02 0.00 80 1016.7
20260510070516 50 69 5.2 12.2 0.00 0.02 0.00 80 1016.6
20260510065516 50 76 5.2 13.9 0.00 0.02 0.00 81 1016.4
20260510064516 49 44 7.0 15.6 0.00 0.02 0.00 81 1016.3
20260510063516 49 45 6.1 13.9 0.00 0.02 0.00 81 1016.2
20260510062515 49 39 6.1 12.2 0.00 0.02 0.00 82 1016.0
20260510061536 49 40 7.8 14.8 0.00 0.02 0.00 82 1015.9
20260510060516 48 40 7.0 13.0 0.00 0.02 0.00 82 1015.8
20260510055516 48 45 6.1 13.9 0.00 0.02 0.00 82 1015.7
20260510054516 48 38 6.1 11.3 0.00 0.02 0.00 81 1015.8
20260510053516 48 45 6.1 13.9 0.00 0.02 0.00 80 1015.6
20260510052515 48 44 6.1 11.3 0.00 0.02 0.00 80 1015.8
20260510051516 48 42 6.1 11.3 0.00 0.02 0.00 80 1015.8
20260510050516 49 42 7.8 13.0 0.00 0.02 0.00 79 1015.7
20260510045515 49 40 6.1 11.3 0.00 0.02 0.00 79 1015.7
20260510044516 49 40 6.1 11.3 0.00 0.02 0.00 79 1015.7
20260510043515 49 39 4.3 12.2 0.00 0.02 0.00 78 1015.7
20260510042516 50 45 5.2 11.3 0.00 0.02 0.00 78 1015.8
20260510041516 50 58 4.3 11.3 0.00 0.02 0.00 77 1015.8
20260510040515 51 57 3.5 7.8 0.00 0.02 0.00 78 1015.9
20260510035515 51 64 3.5 10.4 0.00 0.02 0.00 79 1016.0
20260510034515 51 44 4.3 9.6 0.00 0.02 0.00 80 1016.0
20260510033555 52 66 3.5 10.4 0.00 0.02 0.00 80 1016.1
20260510032515 52 45 6.1 13.9 0.00 0.02 0.00 80 1016.0
20260510031515 52 80 4.3 13.0 0.00 0.02 0.00 80 1016.0
20260510030536 53 82 4.3 10.4 0.00 0.02 0.00 81 1016.1
20260510025515 53 71 3.5 10.4 0.00 0.02 0.00 80 1016.2
20260510024516 53 69 3.5 9.6 0.00 0.02 0.00 80 1016.2
20260510023516 53 78 3.5 13.0 0.00 0.02 0.00 80 1016.2
20260510022515 53 64 2.6 7.8 0.00 0.02 0.00 81 1016.3
20260510021515 53 67 2.6 7.0 0.00 0.02 0.00 82 1016.4
20260510020515 53 59 2.6 7.8 0.00 0.02 0.00 82 1016.4
20260510015515 53 69 1.7 5.2 0.00 0.02 0.00 84 1016.4
20260510014515 53 67 2.6 6.1 0.00 0.02 0.00 84 1016.5
20260510013515 53 49 2.6 8.7 0.00 0.02 0.00 85 1016.5
20260510012515 53 54 2.6 7.8 0.00 0.02 0.00 85 1016.5
20260510011515 53 46 3.5 9.6 0.00 0.02 0.00 86 1016.6
20260510010515 53 46 3.5 8.7 0.00 0.02 0.00 87 1016.6
20260510005555 52 49 3.5 10.4 0.00 0.02 0.00 89 1016.6
20260510004515 52 47 4.3 8.7 0.00 0.02 0.00 90 1016.7
20260510003515 52 44 4.3 8.7 0.00 0.02 0.00 89 1016.6
20260510002514 53 48 5.2 8.7 0.00 0.02 0.00 89 1016.6
20260510001535 53 38 4.3 8.7 0.00 0.02 0.00 89 1016.9
20260510000515 53 37 5.2 8.7 0.00 0.02 0.00 90 1016.9
20260509235537 53 33 5.2 8.7 0.00 0.02 0.00 90 1017.0
20260509234517 53 33 5.2 9.6 0.00 0.02 0.00 90 1017.0
20260509233517 53 33 5.2 8.7 0.00 0.02 0.00 90 1017.1
20260509232557 53 32 4.3 8.7 0.00 0.02 0.00 90 1017.0
20260509231517 53 37 4.3 7.8 0.00 0.02 0.00 90 1017.0
20260509230517 53 33 5.2 8.7 0.00 0.02 0.00 90 1017.2
20260509225536 53 37 4.3 7.8 0.00 0.02 0.02 90 1017.2
20260509224516 53 33 3.5 7.8 0.00 0.02 0.02 90 1017.2
20260509223515 53 53 3.5 5.2 0.00 0.02 0.02 90 1017.2
20260509222535 53 53 2.6 6.1 0.00 0.02 0.02 90 1017.2
20260509221515 53 50 2.6 6.1 0.00 0.02 0.02 89 1017.2
20260509220556 53 46 4.3 8.7 0.00 0.02 0.02 89 1017.3
20260509215515 54 39 4.3 8.7 0.00 0.02 0.02 88 1017.3
20260509214556 54 55 2.6 6.1 0.00 0.02 0.02 88 1017.2
20260509213515 54 57 2.6 6.1 0.00 0.02 0.02 87 1017.2
20260509212515 54 53 3.5 7.8 0.00 0.02 0.02 86 1017.2
20260509211515 55 53 2.6 6.1 0.00 0.02 0.02 85 1017.2
20260509210516 55 38 4.3 9.6 0.00 0.02 0.02 84 1017.1
20260509205515 56 53 2.6 7.8 0.00 0.02 0.02 83 1017.1
20260509204535 56 37 3.5 7.8 0.00 0.02 0.02 82 1017.0
20260509203535 57 33 3.5 7.8 0.00 0.02 0.02 81 1017.0
20260509202515 57 41 3.5 8.7 0.00 0.02 0.02 80 1016.8